Погода Облучье

Погода Облучье : погода сейчас, прогноз погоды и архив. Всё, что Вы хотите узнать о погоде Облучье!

Хотите узнать прогноз погоды Облучье? Тогда Вам сюда: Погода Облучье

Поиск расширенной информации на нашем сайте:

Другие новости

Новости СМИ2

Главная страница сайта

Новости сайта

02.10.2013

Напоминаем, что на нашем новом сайте вы можете получить высокодетализированные прогнозы погоды по пунктам России, СНГ и мира (включающие важные для авиации метеовеличины, такие как направление и скорость ветра, видимость, явления погоды, количество и форма облачности, нижняя и верхняя граница облачности), а также ознакомиться с разнообразными материалами по авиационной метеорологии и подборкой полезных ссылок на эту тему.

Сайт Метеоцентр.Азия посвящён разработке технологий оптимизации авиаметеорологического обслуживания, включая проектирование и перспективное создание нескольких автоматизированных авиаметеорологических систем:
- система выпуска высокодетальных прогностических карт явлений погоды для нижнего воздушного пространства по России и ближнему зарубежью;
- система верификации прогнозов TAF (выпускаемых синоптиками официальных АМСГ РФ и ближнего зарубежья) и AUTOTAF (выпускаемых сайтом Метеоцентр.Азия) - выявление ошибок, онлайн-сопоставление с фактической погодой METAR, автоматическое внесение коррективов в прогнозы при резком отклонении фактической погоды от прогноза, подсчёт оправдываемости прогнозов по элементам и в целом;
- система обработки, анализа и отображения авиаметеорологической информации для применения провайдерами метеорологической информации.

Рекомендуем: Cтраница 10 наращивание ресниц в верхней пышме.

Погода Облучье - сегодня

Время (UTC), дата Ветер
(°,м/с) 
Видим.   Явления Облачность Т
(°С)
Тd
(°С)
f(%) Тe
(°С)
Pmin
(гПа)
dP
(гПа)
Po
(мм)
O2
(г/м3)
Тmin Tmax R s Состояние
почвы
00 26.04.17 350 (С) 20000 м  {снег, дождь}  10/8 600 м кучево-дожд., средняя 
[Cb cap|As trans]
+4.5 +2.2 85 +4  1006.8  731  289           
03 26.04.17 320 (СЗ) 10 км  слаб. ливневой дождь  10/10 600 м кучево-дожд. 
[Cb cap]
+5.5 +3.1 85 +5  1006.6  0.1  731  288           
06 26.04.17 310 (СЗ) 10 км  ливневой дождь  10/10 600 м кучево-дожд. 
[Cb cap]
+4.4 +2.5 87 +4  1006.4  -0.3  731  289           
09 26.04.17 360 (С) 20000 м  в посл. час ливневой дождь  10/8 600 м кучево-дожд., верхняя 
[Cb cap|Ci fib]
+5.1 +3.5 89 +5  1005.5  -0.3  730  288    +6.8     
12 26.04.17 тихо ()   20000 м  {ливн. осадки}  10/4 600 м кучево-дожд., верхняя 
[Cb cap|Ci fib]
+1.4 +0.9 96 +1  1006.7  -0.3  731  293           
15 26.04.17 010 (С) 20000 м    10/10 600 м 
[St]
+0.2 -0.1 98 -1  1006.3  -0.6  730  294           
18 26.04.17 030 (СВ) 20000 м    10/10 600 м 
[St]
+0.9 +0.6 98 1004.9  -1.3  729  293           
21 26.04.17 010 (С) 20000 м    8/6 1000 м верхняя 
[Sc|Ci fib]
+0.2 -0.2 97 +1  1003.7  -1.2  728  293  -0.2        влажная 
00 27.04.17 160 (Ю) 20000 м    8/0 средняя, верхняя 
[Ac trans|Ci fib]
+8.1 +2.6 68 +9  1001.7  -1  728  284           
03 27.04.17 270 (З) 20000 м    8/3 600 м кучево-дожд., средняя, верхняя 
[Cb cap|Ac trans|Ci fib]
+10.8 +1.1 51 +10  1000.1  -1.3  727  281           
06 27.04.17 350 (С) 5-11{12}  20000 м  слаб. ливневой дождь  10/8 600 м кучево-дожд., верхняя 
[Cb cap|Ci fib]
+9 +0.6 56 +8  1000  -1.3  726  283           
09 27.04.17 320 (СЗ) 2{11}  20000 м  {ливн. осадки}  10/5 600 м кучево-дожд., средняя, верхняя 
[Cb cap|Ac trans|Ci fib]
+11 -2.8 38 +11  998.3  -1.5  725  281    +13.5  0.0     
12 27.04.17 030 (СВ) 20000 м  {ливн. осадки}  10/4 600 м кучево-дожд., средняя 
[Cb cap|Ac As]
+6.6 +0.4 65 +8  999.6  0.8  726  285           
15 27.04.17 350 (С) 20000 м    4/0 средняя 
[Ac trans]
+2.7 +0.2 84 +3  999.8  -0.3  726  289           
18 27.04.17 010 (С) 20000 м    ясно 
-1.2 -1.7 96 -1  999.5  -0.7  725  294           
21 27.04.17 040 (СВ) 20000 м    8/3 1000 м средняя, верхняя 
[Sc|Ac As|Ci fib]
-1 -1.5 96 999.1  -0.4  725  293  -2.2        замёрзшая 
00 28.04.17 200 (Ю) 20000 м    1/0 верхняя 
[Ci fib]
+7.7 -1.3 53 +9  997.6  -0.5  725  284           
03 28.04.17 300 (СЗ) 20000 м    8/8 1000 м верхняя 
[Cu hum|Ci fib]
+12.5 -6.1 27 +12  995.9  -1.2  724  279           
06 28.04.17 310 (СЗ) 20000 м    10/6 1000 м средняя, верхняя 
[Sc diur, vesp|Ac cast|Ci fib]
+13.9 -7.5 22 +14  994.6  -1  723  278           
09 28.04.17 290 (З) 20000 м    10/4 600 м кучево-дожд., средняя, верхняя 
[Cb cap|Ac lent|Ci fib]
+12.1 -5.3 29 +12  994.6  -0.2  723  279    +14.7       
12 28.04.17 тихо ()   20000 м    10/4 1000 м верхняя 
[Sc|Ci fib]
+6 -0.5 63 +6  996.2  0.9  723  285           
15 28.04.17 260 (З) 20000 м  {ливн. осадки}  6/6 600 м кучево-дожд. 
[Cb cap]
+3.4 +2.3 92 +4  996.3  -0.2  723  287           
18 28.04.17 010 (С) 20000 м  {ливн. осадки}  10/10 600 м кучево-дожд. 
[Cb cap]
+2.5 +2.2 98 +3  994.8  -1.6  722  288           
21 28.04.17 020 (С) 20000 м    10/10 600 м 
[St]
+3 +2.5 97 +4  994.6  0.1  722  287  +0.8    0.0    влажная 
00 29.04.17 тихо ()   20000 м    10/0 средняя 
[As trans]
+5.2 +3.2 87 +5  991.9  -2.4  720  284           
Время (UTC), дата Ветер
(°,м/с) 
Видим.   Явления Облачность Т
(°С)
Тd
(°С)
f(%) Тe
(°С)
Pmin
(гПа)
dP
(гПа)
Po
(мм)
O2
(г/м3)
Тmin Tmax R s Состояние
почвы

Для получения пояснительной информации подведите курсор к названию столбца.

ПОГОДА Облучье - архив

Всё, что Вы хотите узнать о погоде Облучье - удобно и подробно!

Выберите нужную дату (начиная с 1 января 2015* года) и нажмите кнопку "Найти".
Будут отображены архивные сводки погоды по пункту Облучье, начиная с указанной даты.


Отображать данные в формате CSV (для использования в таблицах Excel)


Внимание! Наш архив погоды предназначен исключительно для личного некоммерческого использования в познавательных целях. Если Вам необходимы официальные справки о состоянии погоды (для производственных, юридических, коммерческих и т.п. целей), обращайтесь в органы Росгидромета.

*Примечание: данная дата относится к архиву по метеостанциям СССР (Россия, СНГ, Балтия).
Архив по метеостанциям Зарубежной Европы и Азии (кроме Китая) хранится 10 дней, по другим регионам земного шара (Китай, Африка, Америка, Австралия, Океания) - 1 день.

Облучье - район местоположения метеостанции


Название, широта, долгота, высота метеостанции:
Облучье 49°ш. 131.1°д. 257 м над ур. моря [Российская Федерация]

Дополнительная информация

В oтличие oт бoльшинства пoгoдных сайтoв мы публикуем пoдрoбную метеoинфoрмацию в детальнoм прoфессиoнальнoм фoрмате.

Характеристики температуры и влажнoсти вoздуха измеряются на высoте 2 м в тени вдали oт зданий и деревьев.
Скoрoсть ветра измеряется на высoте 10 м (на урoвне рoста челoвека скoрoсть ветра ниже в 1.5-2 раза). Если метеoстанция нахoдится в гoрoде или в лесу, тo скoрoсть ветра занижена на 2-4 м/с пo сравнению с oткрытым местoм. Скoрoсть ветра над акватoриями крупных рек и oзёр, а также на вершинах хoлмoв на 2-5 м/с выше, чем в oбычных услoвиях.
Атмoсфернoе давление в разных тoчках местнoсти мoжет значительнo oтличаться oт давления на метеoстанции, в зависимoсти oт услoвий рельефа (при пoдъёме на 10 м давление пoнижается примернo на 1 мм рт.ст.).